| time (UTC) | temp F | wind direction | speed knots | gust knots | rain 1hr in | rain 24hr in | rain mn in | humidity % | barometer mb |
| 20260504024502 | 53 | 144 | 0.9 | 9.6 | 0.00 | 0.00 | 0.00 | 67 | 1018.0 |
| 20260504023002 | 53 | 144 | 1.7 | 7.0 | 0.00 | 0.00 | 0.00 | 66 | 1017.9 |
| 20260504021600 | 53 | 160 | 1.7 | 6.1 | 0.00 | 0.00 | 0.00 | 65 | 1017.9 |
| 20260504020041 | 53 | 167 | 1.7 | 7.0 | 0.00 | 0.00 | 0.00 | 65 | 1017.8 |
| 20260504014536 | 52 | 140 | 2.6 | 5.2 | 0.00 | 0.00 | 0.00 | 65 | 1017.7 |
| 20260504013037 | 51 | 291 | 0.0 | 3.5 | 0.00 | 0.00 | 0.00 | 70 | 1017.5 |
| 20260504011534 | 51 | 291 | 0.0 | 0.0 | 0.00 | 0.00 | 0.00 | 67 | 1017.1 |
| 20260504010032 | 52 | 291 | 0.0 | 0.0 | 0.00 | 0.00 | 0.00 | 64 | 1017.0 |
| 20260504004536 | 53 | 291 | 0.0 | 1.7 | 0.00 | 0.00 | 0.00 | 64 | 1016.8 |
| 20260504003040 | 55 | 291 | 0.0 | 0.0 | 0.00 | 0.00 | 0.00 | 58 | 1016.5 |
| 20260504001538 | 56 | 291 | 0.0 | 0.0 | 0.00 | 0.00 | 0.00 | 52 | 1016.3 |
| 20260504000052 | 58 | 291 | 0.0 | 0.0 | 0.00 | 0.00 | 0.00 | 47 | 1016.1 |
| 20260503234530 | 60 | 291 | 0.0 | 1.7 | 0.00 | 0.00 | 0.00 | 43 | 1016.0 |
| 20260503233031 | 61 | 291 | 0.9 | 4.3 | 0.00 | 0.00 | 0.00 | 39 | 1015.9 |
| 20260503231529 | 63 | 291 | 1.7 | 5.2 | 0.00 | 0.00 | 0.00 | 34 | 1015.8 |
| 20260503230028 | 64 | 301 | 1.7 | 5.2 | 0.00 | 0.00 | 0.00 | 34 | 1015.8 |
| 20260503224529 | 64 | 296 | 3.5 | 7.8 | 0.00 | 0.00 | 0.00 | 35 | 1015.8 |
| 20260503223036 | 64 | 300 | 4.3 | 7.8 | 0.00 | 0.00 | 0.00 | 33 | 1015.9 |
| 20260503221528 | 65 | 293 | 3.5 | 6.1 | 0.00 | 0.00 | 0.00 | 35 | 1015.9 |
| 20260503220025 | 65 | 281 | 2.6 | 6.1 | 0.00 | 0.00 | 0.00 | 32 | 1015.8 |
| 20260503214524 | 65 | 277 | 5.2 | 8.7 | 0.00 | 0.00 | 0.00 | 33 | 1015.8 |
| 20260503213022 | 65 | 283 | 3.5 | 8.7 | 0.00 | 0.00 | 0.00 | 32 | 1015.8 |
| 20260503211520 | 65 | 190 | 6.1 | 11.3 | 0.00 | 0.00 | 0.00 | 34 | 1015.9 |
| 20260503210018 | 64 | 248 | 5.2 | 10.4 | 0.00 | 0.00 | 0.00 | 31 | 1015.8 |
| 20260503204518 | 65 | 313 | 7.0 | 13.0 | 0.00 | 0.00 | 0.00 | 31 | 1015.7 |
| 20260503203025 | 65 | 286 | 3.5 | 10.4 | 0.00 | 0.00 | 0.00 | 34 | 1015.8 |
| 20260503201517 | 64 | 302 | 6.1 | 13.0 | 0.00 | 0.00 | 0.00 | 32 | 1015.9 |
| 20260503200016 | 64 | 267 | 5.2 | 10.4 | 0.00 | 0.00 | 0.00 | 32 | 1016.1 |
| 20260503194515 | 64 | 302 | 7.0 | 13.0 | 0.00 | 0.00 | 0.00 | 35 | 1016.3 |
| 20260503193017 | 64 | 322 | 7.0 | 13.0 | 0.00 | 0.00 | 0.00 | 33 | 1016.3 |
| 20260503191510 | 64 | 300 | 6.1 | 12.2 | 0.00 | 0.00 | 0.00 | 33 | 1016.7 |
| 20260503190012 | 63 | 298 | 7.8 | 15.6 | 0.00 | 0.00 | 0.00 | 35 | 1016.7 |
| 20260503184508 | 63 | 331 | 6.1 | 10.4 | 0.00 | 0.00 | 0.00 | 37 | 1017.0 |
| 20260503183005 | 62 | 323 | 6.1 | 12.2 | 0.00 | 0.00 | 0.00 | 38 | 1017.0 |
| 20260503181505 | 62 | 342 | 7.8 | 12.2 | 0.00 | 0.00 | 0.00 | 38 | 1016.9 |
| 20260503174523 | 61 | 306 | 8.7 | 16.5 | 0.00 | 0.00 | 0.00 | 41 | 1017.2 |
| 20260503173050 | 61 | 293 | 7.0 | 13.0 | 0.00 | 0.00 | 0.00 | 41 | 1017.3 |
| 20260503171642 | 60 | 290 | 7.8 | 18.2 | 0.00 | 0.00 | 0.00 | 40 | 1017.4 |
| 20260503170107 | 59 | 292 | 7.0 | 13.0 | 0.00 | 0.00 | 0.00 | 40 | 1017.5 |
| 20260503081528 | 53 | 12 | 4.3 | 8.7 | 0.00 | 0.01 | 0.00 | 64 | 1013.4 |
| 20260503071518 | 53 | 294 | 3.5 | 7.8 | 0.00 | 0.01 | 0.00 | 64 | 1012.8 |
| 20260503054509 | 52 | 299 | 3.5 | 6.1 | 0.00 | 0.01 | 0.00 | 68 | 1012.2 |
| 20260503053006 | 52 | 303 | 1.7 | 3.5 | 0.00 | 0.01 | 0.00 | 66 | 1012.4 |
| 20260503051601 | 53 | 303 | 0.0 | 3.5 | 0.00 | 0.01 | 0.00 | 65 | 1012.4 |
| 20260503050058 | 54 | 305 | 1.7 | 4.3 | 0.00 | 0.01 | 0.00 | 63 | 1012.4 |
| 20260503044534 | 54 | 306 | 3.5 | 5.2 | 0.00 | 0.01 | 0.00 | 63 | 1012.4 |
| 20260503043112 | 55 | 297 | 2.6 | 5.2 | 0.00 | 0.01 | 0.00 | 63 | 1012.5 |
| 20260503041556 | 55 | 295 | 2.6 | 5.2 | 0.00 | 0.01 | 0.00 | 63 | 1012.5 |
| 20260503040055 | 55 | 295 | 2.6 | 7.0 | 0.00 | 0.01 | 0.00 | 63 | 1012.4 |
| 20260503034551 | 55 | 300 | 2.6 | 5.2 | 0.00 | 0.01 | 0.01 | 66 | 1012.5 |
| 20260503033054 | 55 | 300 | 0.9 | 5.2 | 0.00 | 0.01 | 0.01 | 64 | 1012.3 |
| 20260503031536 | 56 | 297 | 1.7 | 4.3 | 0.00 | 0.01 | 0.01 | 62 | 1012.2 |
| 20260503030051 | 56 | 296 | 1.7 | 6.1 | 0.00 | 0.01 | 0.01 | 62 | 1012.2 |